Wind_Speed
18 19 19 20 21 22 23 24 25 26 26 26 26 26 25 25 24 23 23 23 22 22 22 22 22 22 22 22 22 22 22 22 22 22 22 22 22 22 22 22 23 23 22 22 22 21 21 21 20 20 20 20 21 21 21 20 20 20 20 20 19 20 22 24 24 23 24 24 23 23 23 23 24 25 27 28 28 27 26 27 27 29 30 31 31 30 29 29
19 19 19 20 21 22 24 24 25 25 25 25 25 25 24 24 23 22 22 22 22 22 22 22 22 22 23 23 23 23 22 22 22 22 22 22 22 22 23 23 23 23 22 22 22 22 22 22 21 20 20 20 20 20 20 20 19 19 19 18 20 22 23 23 23 23 23 22 22 23 23 23 23 24 25 26 27 26 26 26 26 28 30 31 30 29 29 29
19 19 19 20 22 23 23 24 24 23 23 24 23 23 23 22 21 21 21 21 21 22 22 22 23 23 23 23 23 23 23 23 22 22 22 22 22 23 23 23 23 23 23 23 23 23 23 23 22 22 21 21 21 21 21 20 20 20 18 19 22 23 23 22 22 22 22 22 22 23 22 22 22 22 23 23 24 25 25 25 23 24 27 28 29 30 30 30
18 19 19 20 21 22 22 22 22 22 21 22 22 21 21 20 19 19 20 20 21 21 21 22 22 22 22 22 22 22 23 23 23 22 22 22 23 23 24 24 24 24 24 24 24 24 23 23 23 23 23 22 22 22 22 21 20 20 19 21 23 23 23 22 22 22 22 22 22 22 21 21 20 20 21 21 21 22 23 22 22 23 26 27 29 30 30 30
18 19 19 20 20 20 20 20 20 19 19 19 19 19 18 17 17 17 18 19 19 20 20 20 21 20 20 20 21 21 22 22 22 22 22 22 23 24 24 25 25 25 25 25 25 24 24 24 24 24 24 23 23 23 22 22 21 20 21 22 23 23 23 22 22 22 21 21 21 21 21 20 20 19 19 19 20 21 22 23 24 25 27 28 29 29 29 28
18 18 19 19 19 18 17 17 17 17 17 17 17 17 16 15 15 15 16 17 18 18 18 18 18 18 18 18 18 19 20 20 20 21 21 22 23 24 24 25 25 25 25 25 24 24 25 25 25 25 24 24 24 23 23 22 22 22 23 23 24 24 23 21 20 20 20 20 21 21 21 20 19 19 19 19 20 22 23 25 27 28 29 30 29 28 27 26
18 18 18 18 17 16 15 15 15 15 15 15 15 14 13 13 13 14 15 16 16 16 16 16 16 15 15 16 16 16 17 18 19 19 20 21 22 23 23 23 24 24 24 24 24 24 24 25 25 24 24 24 24 23 24 23 23 24 24 25 25 24 23 20 19 19 19 20 20 20 20 20 19 19 19 20 21 22 24 26 27 28 28 28 27 27 26 25
17 17 17 16 15 14 14 13 13 13 13 13 12 12 11 12 12 13 14 14 15 15 15 14 13 13 14 14 15 15 16 17 17 18 19 20 20 21 21 21 21 22 23 23 23 24 24 24 24 23 24 24 24 24 24 24 24 25 26 26 26 25 24 21 20 20 19 19 19 19 20 20 19 19 21 22 23 24 25 26 27 28 27 27 27 26 25 24
16 16 16 15 14 13 12 12 11 11 11 11 11 10 10 11 11 12 13 14 14 14 14 13 12 12 13 13 13 14 15 15 16 17 17 17 18 18 18 18 19 20 21 22 23 23 22 22 22 22 23 23 24 24 24 24 24 25 26 27 26 26 25 23 22 21 20 20 19 20 20 20 20 21 23 24 24 26 27 28 28 28 27 27 26 25 25 24
16 15 15 14 13 12 11 11 11 10 10 10 10 10 9 10 10 11 12 13 13 14 13 12 12 12 12 12 12 13 14 15 15 15 15 15 16 17 17 16 17 18 19 20 21 21 20 20 20 21 22 22 23 22 22 22 23 24 25 25 25 26 26 24 23 22 22 21 21 21 21 21 22 22 24 25 25 27 28 29 29 29 28 27 27 26 26 25
15 15 14 13 13 12 11 11 10 10 10 9 9 9 9 9 9 10 11 12 13 13 12 11 11 11 12 12 12 12 13 14 14 13 14 14 14 15 15 15 16 17 18 18 18 18 18 18 19 20 20 20 20 19 19 20 21 22 23 23 23 25 25 25 24 23 22 22 22 22 22 23 23 23 25 25 26 28 29 30 30 30 29 28 28 27 25 25
15 15 14 13 13 12 11 11 11 11 11 10 9 9 9 9 9 10 10 11 12 12 12 12 12 12 12 12 12 12 13 13 13 12 12 12 13 13 14 14 14 15 15 16 16 17 18 18 19 19 19 19 18 17 17 18 19 20 20 20 22 23 24 24 24 23 23 24 23 22 23 23 23 24 26 26 27 29 30 31 30 30 29 28 27 25 24 24
15 15 14 13 13 12 12 12 12 12 12 11 10 10 9 9 9 9 10 11 11 12 12 13 13 13 13 13 12 12 12 12 12 12 11 11 12 12 12 13 13 13 13 13 14 15 17 18 18 18 18 18 17 17 16 17 18 18 18 19 21 22 23 24 22 23 23 24 24 24 24 25 25 26 27 27 28 29 30 30 29 28 27 25 25 24 23 23
15 15 14 14 13 12 12 12 13 13 12 12 11 11 10 10 10 10 10 11 11 11 11 12 13 13 14 14 14 13 12 11 11 11 10 11 11 11 11 12 12 11 11 10 11 13 14 16 17 18 18 18 17 17 17 18 18 18 18 19 20 20 21 22 21 22 24 26 26 25 26 26 27 27 27 28 28 28 28 27 27 26 25 25 25 25 25 24
16 15 14 14 14 13 13 13 13 13 13 13 12 12 11 11 11 11 12 12 11 11 11 11 12 13 14 15 15 14 13 12 11 11 10 10 10 10 11 11 11 10 10 9 9 11 12 13 14 16 16 16 15 16 18 19 19 18 17 18 18 18 19 20 21 22 25 27 27 27 27 26 27 28 27 28 28 27 26 26 26 26 26 26 27 26 26 26
16 15 15 15 14 14 14 14 14 14 14 14 13 13 12 12 13 13 13 13 13 12 11 11 12 12 14 15 15 15 14 13 12 12 11 11 10 10 10 10 10 10 9 9 9 9 10 10 10 11 12 13 13 15 17 18 17 17 17 17 16 17 18 19 20 22 23 25 27 27 27 26 28 28 27 28 27 26 26 26 26 26 26 26 26 25 25 25
16 16 16 16 15 15 15 15 15 15 15 15 14 14 14 14 14 14 14 14 14 13 12 12 12 13 13 13 14 14 14 14 14 13 13 12 11 10 10 11 10 10 9 9 8 8 8 7 8 9 10 12 13 15 16 16 16 16 16 16 16 17 18 18 20 21 21 23 26 27 26 26 28 29 28 29 29 26 26 26 25 25 24 24 24 24 23 22
16 16 16 16 16 16 16 16 16 16 16 15 15 15 15 15 15 15 14 14 14 14 13 13 13 14 13 12 13 14 15 15 14 14 14 13 13 11 11 11 11 11 10 9 8 7 6 7 8 9 11 13 13 14 15 15 15 15 15 15 15 16 17 17 18 19 20 22 24 26 26 26 29 30 29 30 30 28 26 25 25 24 24 24 24 24 23 21
16 16 16 16 17 17 17 17 17 17 17 17 17 17 16 16 16 16 15 15 15 14 13 13 14 15 14 14 13 13 14 14 15 15 15 15 14 13 12 12 12 12 12 11 9 8 8 8 10 12 14 14 12 12 14 14 14 14 14 14 14 14 15 16 17 18 19 20 22 24 24 25 27 28 28 30 30 28 26 25 25 25 26 26 25 24 24 23
16 16 17 17 17 17 17 18 18 18 18 18 18 18 18 17 17 17 16 16 15 14 14 14 14 14 14 15 14 13 13 13 14 15 15 15 15 15 14 14 14 14 14 13 12 10 10 11 13 16 16 13 12 13 14 14 14 15 15 14 14 14 15 16 17 18 18 19 20 20 21 22 24 24 25 26 28 28 27 27 27 27 26 25 24 24 23 23
16 16 17 17 18 18 18 19 19 19 19 19 19 19 19 18 18 18 18 17 16 15 15 15 16 15 14 14 14 14 14 13 14 14 14 15 15 16 15 15 16 16 16 15 14 13 12 14 17 18 17 15 15 15 15 15 16 16 16 16 16 16 18 19 20 21 20 20 20 19 19 20 21 22 23 25 26 28 29 29 29 27 24 23 23 23 23 22
16 17 17 18 18 19 19 19 19 20 20 20 20 20 20 20 20 19 19 18 17 17 17 17 16 16 15 15 15 15 15 14 15 15 15 15 15 16 16 16 17 17 17 17 16 15 16 19 21 20 19 18 18 18 18 17 17 17 17 18 18 19 21 22 23 24 23 22 22 22 21 21 22 22 23 25 27 29 29 30 29 27 24 23 24 24 24 23
16 17 18 18 19 19 20 20 20 21 21 21 21 21 21 21 21 21 20 19 19 19 19 18 18 17 16 16 16 15 14 14 15 15 16 16 16 16 16 16 17 18 17 17 16 16 19 23 23 22 21 21 21 21 20 19 19 20 20 20 21 22 24 25 26 26 26 25 24 24 23 23 24 23 24 26 27 28 29 29 29 27 25 24 24 24 24 24
16 17 18 19 20 20 21 21 21 22 22 22 22 22 22 22 21 21 21 20 20 20 20 20 19 18 17 17 17 16 15 14 14 14 15 15 15 16 16 17 18 18 18 16 15 17 20 23 23 22 22 22 22 22 21 21 21 22 22 23 24 25 27 28 29 29 27 27 26 25 25 25 25 25 25 26 27 28 29 29 29 28 27 26 25 23 24 25
17 18 19 20 21 22 22 22 22 22 23 22 22 22 22 21 20 20 20 20 20 20 20 20 20 19 19 18 18 17 16 15 14 14 14 14 14 15 15 16 17 17 17 16 15 17 21 22 22 23 22 21 21 20 20 20 21 22 22 23 25 27 28 29 29 28 28 28 28 27 26 25 25 26 27 27 28 29 30 30 30 30 29 28 26 25 25 26
18 18 19 21 22 22 22 22 22 22 22 21 20 20 20 20 19 19 19 18 18 19 19 19 18 18 19 18 17 17 16 15 15 15 15 15 15 15 16 16 16 16 16 15 15 17 21 21 22 23 22 21 21 20 20 21 21 21 21 23 25 26 27 28 27 27 28 28 28 27 27 26 25 25 28 29 30 31 31 31 32 32 31 30 27 26 26 26
18 18 19 20 21 22 22 22 21 21 21 20 19 19 18 18 18 17 17 17 16 17 17 17 17 17 17 17 16 16 15 15 15 16 16 15 15 15 16 17 17 17 16 16 16 17 19 20 21 21 21 21 21 21 22 22 22 21 22 24 25 26 27 27 27 28 28 29 29 28 28 28 26 26 28 30 31 32 33 33 33 32 32 31 29 27 26 25
18 19 20 20 21 22 21 21 20 20 19 19 18 17 16 17 16 16 16 15 14 15 15 15 16 16 16 15 15 15 15 15 15 15 15 15 15 15 16 17 17 18 17 16 17 17 18 20 20 19 18 18 20 21 21 22 22 22 24 25 25 26 26 27 28 28 29 29 29 28 28 29 28 27 28 30 32 33 33 34 34 33 33 32 31 29 27 26
19 20 20 20 20 21 20 20 19 18 18 17 17 16 15 15 15 15 15 14 14 14 14 14 15 15 15 15 14 14 14 14 14 14 14 14 15 15 15 16 16 17 16 15 16 17 18 19 20 18 17 17 18 19 20 21 21 22 23 23 25 26 27 28 29 29 30 29 28 28 29 30 30 27 27 29 30 31 33 33 34 34 34 34 32 30 28 27
20 21 20 20 19 19 18 18 18 17 17 16 16 15 14 14 14 14 13 13 13 12 11 12 13 13 13 13 13 13 12 12 11 11 11 12 12 12 13 14 14 15 15 15 16 17 18 19 20 19 17 17 18 18 19 20 20 21 22 23 24 26 26 27 27 27 28 28 26 27 29 30 29 27 26 27 28 29 31 32 34 35 34 34 32 30 29 28
22 21 20 19 18 17 17 16 17 17 16 16 15 14 14 13 13 12 11 11 12 11 10 10 11 11 10 10 11 11 10 10 9 9 8 8 9 9 10 11 12 12 13 14 14 15 17 18 19 19 18 17 18 17 18 19 19 20 21 22 23 24 25 25 25 25 25 24 23 23 25 25 25 23 23 23 24 25 28 29 31 33 32 31 30 29 28 26
22 20 19 18 17 16 16 15 16 16 15 15 14 13 13 12 11 9 9 10 11 11 11 10 10 10 9 7 8 8 8 8 8 8 7 7 8 8 9 9 9 9 10 11 11 11 13 13 14 16 16 16 16 16 15 16 17 19 20 21 22 23 23 23 22 22 22 21 21 21 22 22 21 21 20 21 21 22 23 25 27 27 25 24 24 22 20 19
21 20 18 17 17 16 15 15 15 16 15 14 14 13 13 11 10 9 9 10 10 11 11 11 11 11 9 8 7 8 8 7 7 7 7 7 8 8 8 8 8 8 9 9 9 9 10 11 11 12 13 14 15 14 14 15 16 18 19 20 21 22 22 21 20 20 20 20 21 21 21 21 20 20 20 21 21 21 21 22 23 23 21 19 18 17 15 15
21 19 18 17 16 16 15 15 15 15 15 15 14 14 13 12 12 11 11 10 9 10 11 12 13 13 11 10 10 9 9 8 8 8 7 8 9 10 10 10 9 10 10 10 10 9 9 11 11 11 12 13 13 14 15 17 18 19 20 21 21 21 21 22 22 21 21 21 22 21 22 22 20 20 20 19 20 20 19 20 20 20 19 18 16 14 13 14
21 19 18 17 16 16 16 16 16 16 17 16 15 15 14 14 14 13 13 12 11 11 11 12 14 15 14 13 12 11 10 10 10 10 10 10 11 11 12 12 13 13 13 13 13 12 11 11 12 13 14 13 13 15 17 18 18 19 20 21 21 20 21 23 23 23 23 23 23 22 22 21 20 20 19 18 18 18 17 18 18 19 19 19 17 14 13 13
21 20 19 17 17 17 17 17 17 17 18 18 17 16 15 16 16 15 15 14 13 12 12 13 14 15 16 15 15 14 12 12 12 12 13 13 13 14 14 15 16 16 16 16 16 16 15 14 13 14 16 15 15 16 17 18 19 20 21 21 20 21 22 24 24 25 25 25 25 24 23 22 21 21 21 20 19 19 18 18 18 19 20 20 19 17 15 14
23 22 20 18 18 18 18 18 18 18 18 19 18 18 17 17 17 17 17 17 16 15 14 15 15 16 16 17 17 16 15 14 15 15 17 17 17 17 17 18 18 18 19 19 20 20 20 19 17 16 17 18 17 17 18 20 21 22 22 21 21 23 24 25 25 26 27 27 27 26 24 23 22 21 21 20 20 19 18 18 18 19 20 20 21 20 18 17
24 23 22 20 20 20 19 19 19 19 19 19 19 19 18 18 18 18 19 18 18 17 17 18 18 18 18 18 18 17 17 17 18 18 19 20 21 21 21 21 21 21 21 22 22 23 23 23 21 20 19 20 20 20 20 21 23 23 23 24 24 25 26 26 27 28 29 30 29 27 25 24 22 21 22 21 20 20 20 19 19 19 20 21 21 22 21 20
25 25 24 23 22 22 21 20 20 19 19 19 19 19 19 19 19 19 20 20 20 20 20 20 20 20 20 19 19 19 19 20 21 21 22 23 23 24 24 24 24 24 24 24 25 25 25 25 25 23 23 23 23 23 23 24 24 25 26 26 27 27 27 28 29 29 30 31 31 30 28 26 23 23 23 23 22 22 22 22 22 22 22 22 23 24 24 23
26 26 26 26 25 25 23 22 21 20 20 19 19 19 19 19 19 20 21 22 22 21 21 20 21 21 21 20 20 21 21 22 23 23 24 25 25 26 26 26 26 27 27 27 28 28 28 28 28 27 27 26 27 27 27 26 27 27 28 28 29 29 29 30 31 31 31 32 32 32 32 29 26 25 25 25 25 24 25 25 25 25 24 24 25 26 27 27
27 27 27 27 28 28 27 26 24 23 22 21 20 20 20 20 20 21 21 22 22 22 21 21 21 21 22 22 22 23 23 24 24 25 26 27 27 28 28 28 28 28 29 30 30 31 31 31 31 31 30 29 30 30 30 30 30 30 30 30 30 30 30 31 32 32 32 33 33 34 34 32 30 28 27 27 28 29 28 28 28 28 28 28 28 28 29 30
28 28 28 28 29 30 30 29 28 27 26 24 23 23 23 22 22 22 23 23 23 23 22 22 23 23 24 24 25 26 26 27 27 27 28 29 29 30 30 31 31 31 31 32 33 33 33 34 34 34 33 32 33 33 33 33 33 33 32 32 32 32 32 32 33 34 33 34 35 36 36 36 34 31 29 29 31 32 32 32 33 34 35 34 33 32 31 32
28 29 29 29 30 31 32 32 31 30 30 28 28 27 26 26 25 25 25 25 25 25 25 25 26 26 27 27 28 29 30 31 31 31 31 32 32 32 32 33 33 33 33 34 34 34 35 35 36 36 36 35 36 36 36 36 36 36 35 35 35 35 34 35 35 36 37 38 37 38 40 40 37 34 32 32 33 34 35 36 38 39 40 39 37 35 33 33
28 29 29 30 32 33 33 34 33 33 33 32 32 32 31 30 29 28 28 28 28 29 29 29 29 30 30 31 32 33 33 34 35 35 34 35 35 35 35 35 35 35 35 36 36 36 36 36 37 38 38 38 38 38 38 38 37 38 38 38 38 37 37 38 38 39 41 41 40 40 42 42 40 39 38 38 38 39 39 41 42 42 42 42 41 40 37 35
28 29 29 30 32 34 35 35 35 34 35 35 35 35 35 34 33 31 31 31 31 31 32 32 33 33 34 34 35 35 36 36 37 37 37 37 37 37 37 37 37 37 37 37 37 37 37 37 38 38 39 39 39 38 38 39 39 39 39 39 40 39 39 40 40 41 43 44 43 43 43 42 42 42 42 42 42 43 43 44 44 44 44 44 45 45 43 41
27 28 29 29 31 33 34 35 35 36 36 37 38 38 38 37 37 36 35 35 35 35 35 35 36 36 36 37 37 38 38 38 38 39 39 39 39 39 39 39 39 39 38 38 38 38 38 38 38 39 40 40 39 39 38 38 39 39 39 40 40 41 41 41 42 43 45 46 47 47 47 45 46 46 45 45 45 46 46 47 47 47 48 48 49 49 48 47
26 27 28 29 30 31 32 33 34 35 36 36 37 38 38 39 39 40 39 39 38 38 38 38 38 38 39 39 39 40 40 40 40 41 41 41 41 41 41 41 41 40 40 39 39 39 38 38 38 38 39 40 40 40 39 38 38 38 39 40 41 42 42 42 43 44 45 47 48 49 48 48 49 49 49 50 50 50 51 50 50 51 51 51 51 51 51 51
27 27 28 29 30 30 31 32 32 33 34 35 36 36 36 37 38 39 40 40 40 40 39 39 39 39 40 40 40 41 42 42 42 42 41 41 41 41 42 42 42 41 41 40 39 39 38 38 38 38 38 39 40 40 40 40 39 38 39 40 41 42 43 43 44 44 45 46 46 48 48 47 48 50 51 52 53 53 52 52 52 51 51 51 50 50 51 52
25 26 27 28 29 30 30 31 32 33 34 34 35 35 35 36 37 38 39 39 39 40 40 40 40 40 40 41 41 41 42 42 42 42 42 42 42 42 42 42 42 41 40 40 39 39 39 39 38 38 39 39 40 41 41 41 41 41 41 41 42 43 43 43 44 44 44 44 45 46 47 46 46 50 51 52 53 53 52 52 52 51 51 50 49 48 48 49
24 25 25 26 27 28 28 30 31 32 33 34 35 35 35 36 37 38 38 39 39 40 40 40 40 40 40 41 41 41 41 42 42 42 42 42 42 42 42 41 41 41 40 39 39 39 39 40 40 40 41 41 41 41 42 43 44 44 44 45 45 44 43 43 42 42 43 43 43 45 47 46 45 47 49 50 51 52 52 52 52 52 51 51 50 49 48 47
26 26 26 26 27 27 27 28 29 30 30 31 32 33 34 35 36 37 37 38 38 39 39 39 39 40 40 40 40 40 41 41 41 41 41 41 41 41 41 41 40 40 40 40 40 40 41 42 42 43 44 43 42 43 44 45 46 47 47 47 45 44 44 43 43 43 43 43 43 44 47 45 43 43 46 49 50 49 50 50 51 52 52 51 51 50 49 48
29 29 28 29 29 29 29 29 29 29 29 29 30 31 31 32 33 34 35 36 36 37 37 37 38 38 39 39 39 39 40 40 40 40 41 41 41 41 41 41 41 41 41 41 41 41 42 43 43 45 46 45 44 44 45 46 47 48 47 45 44 44 44 45 45 44 43 43 44 46 46 44 42 43 45 46 47 47 48 49 50 50 50 50 50 50 50 49
Wind_Direction
273 275 277 278 280 282 284 284 285 285 285 284 284 283 282 280 278 274 271 268 267 266 266 266 267 268 267 267 266 265 264 265 265 266 266 266 265 265 265 263 263 261 260 260 259 258 257 255 254 250 247 244 243 241 239 238 236 236 236 237 239 240 240 240 240 239 240 242 242 242 240 239 239 239 241 244 245 244 244 243 243 244 245 246 246 246 247 249
271 273 275 277 280 282 283 284 284 284 284 283 283 282 281 280 276 272 269 266 264 264 265 265 266 267 267 266 265 265 264 264 264 265 265 264 264 264 264 263 262 261 260 258 256 255 253 251 250 247 245 242 240 239 238 236 235 234 233 235 238 239 240 240 241 241 242 243 244 244 243 242 242 240 240 243 245 246 247 247 245 244 244 245 245 245 246 248
269 271 274 277 280 282 283 284 283 283 282 282 282 282 281 279 274 270 267 265 263 263 263 264 265 265 266 266 266 265 264 262 262 263 263 263 263 263 263 263 262 261 260 258 256 254 252 249 247 245 243 241 239 238 237 235 233 232 230 233 237 238 239 240 241 243 243 244 245 246 247 246 245 244 244 244 245 246 247 248 244 241 241 241 243 244 246 248
267 271 275 278 281 282 283 283 282 282 281 282 283 283 281 277 272 268 265 263 262 261 262 263 264 265 266 266 266 264 262 260 259 260 260 261 262 262 262 262 262 261 259 258 255 254 251 249 246 244 243 241 239 238 238 236 234 232 229 233 236 236 238 239 241 243 245 246 247 249 251 251 249 248 248 246 246 246 245 243 237 234 236 237 239 242 245 248
267 271 276 279 281 282 282 282 282 282 282 283 284 284 282 276 270 265 262 261 260 260 261 262 264 265 266 267 266 264 261 260 258 258 259 260 261 261 262 261 260 259 258 256 255 253 250 247 245 243 242 241 240 240 239 238 236 234 231 233 234 235 237 239 242 246 248 249 250 252 253 254 253 251 249 247 244 240 236 234 232 233 236 238 239 241 244 248
268 273 277 279 280 280 280 281 282 282 283 285 288 288 283 276 270 264 261 259 259 259 260 261 263 265 266 265 265 263 261 260 259 258 259 259 260 261 261 260 259 257 255 254 252 250 248 245 243 242 241 242 242 242 242 241 239 236 233 233 235 235 238 242 245 250 253 252 251 252 254 255 255 253 250 247 244 240 237 235 235 239 241 242 242 242 245 249
269 274 277 277 277 278 278 281 283 285 286 289 292 291 284 277 271 265 261 259 258 258 258 259 261 263 263 263 263 262 260 259 259 258 258 258 259 260 260 260 258 255 253 250 248 246 245 244 243 242 243 244 245 245 245 244 242 239 236 236 238 239 241 245 248 252 254 253 252 252 253 254 253 252 248 244 242 243 242 240 240 242 242 243 244 245 248 250
270 273 274 274 274 275 277 281 285 289 291 293 296 294 285 276 271 266 263 260 258 257 256 257 257 258 259 260 260 260 259 259 258 258 258 259 259 259 258 258 257 254 250 248 245 244 243 243 244 244 245 245 246 246 247 247 244 241 239 240 241 242 245 248 249 251 253 253 253 251 251 250 249 248 244 241 239 238 238 237 238 238 239 241 244 246 248 250
269 271 271 271 272 274 278 282 288 293 297 298 300 299 289 278 270 266 263 260 258 256 255 254 254 254 255 257 258 260 260 259 259 259 259 260 259 258 256 255 253 252 249 248 246 245 244 244 244 244 245 245 246 247 247 247 245 243 242 242 242 243 247 249 248 250 252 254 253 250 248 246 245 244 242 241 237 234 234 234 234 236 237 240 242 244 246 249
267 268 268 268 270 274 278 282 287 292 297 300 302 303 297 285 274 268 265 262 260 257 256 255 255 253 255 257 260 263 262 261 262 262 262 261 260 259 256 253 251 250 248 248 247 247 246 244 243 243 243 243 244 246 246 246 245 244 243 243 242 244 246 247 248 250 251 253 252 249 247 245 243 241 240 241 238 235 235 234 234 235 236 239 241 243 247 253
264 265 265 266 269 273 277 281 284 286 289 294 298 301 300 295 285 276 270 267 265 263 262 261 259 258 259 260 262 266 265 265 266 265 264 264 263 262 259 255 252 249 247 245 243 242 240 238 237 237 239 240 241 242 241 241 241 241 242 242 242 243 246 246 246 249 250 252 252 250 248 245 244 241 239 241 239 237 237 235 235 236 237 241 245 250 256 261
261 261 263 265 268 272 276 279 280 280 281 284 288 293 296 297 294 288 281 276 272 270 269 266 264 263 263 263 265 267 267 268 269 268 267 267 266 263 261 258 253 250 248 245 241 238 235 233 232 232 233 235 234 234 234 233 235 238 238 240 241 242 244 245 245 247 248 249 250 250 249 247 246 243 241 240 240 240 239 239 240 241 244 248 253 258 262 264
259 259 261 264 268 272 276 278 278 277 278 280 282 285 288 290 293 293 290 285 280 277 273 268 265 263 263 264 265 266 267 269 271 272 272 271 269 265 261 259 255 250 247 247 244 241 238 235 232 230 229 228 227 226 227 228 230 233 234 237 238 239 241 242 242 244 245 246 247 247 246 247 247 244 242 242 241 241 242 243 245 247 250 253 257 260 261 261
257 257 259 263 268 272 275 276 277 276 278 279 280 282 284 286 288 288 289 287 286 284 279 272 268 264 263 263 263 264 266 268 271 272 272 272 272 270 265 260 254 247 242 243 244 243 241 238 235 231 227 226 225 225 225 226 226 227 228 231 233 234 237 238 237 239 240 241 244 244 243 245 247 246 246 247 246 246 247 248 249 250 252 255 257 259 259 257
256 256 258 263 267 271 274 276 276 276 277 278 278 280 284 286 287 285 284 283 283 284 283 279 274 268 264 263 263 262 263 265 266 265 266 267 270 273 270 262 254 245 239 237 235 237 239 238 237 234 232 231 229 226 226 225 223 222 221 224 227 228 231 234 234 235 238 240 243 244 244 245 248 249 251 252 253 253 253 252 252 253 255 256 257 257 256 253
255 255 257 261 265 269 273 275 275 275 276 276 277 280 283 285 286 284 281 279 279 279 280 279 277 273 267 264 264 263 262 261 260 259 260 260 264 271 273 268 261 252 243 236 231 232 235 237 238 237 237 237 231 225 224 224 221 219 219 220 221 223 226 230 232 234 237 242 245 247 246 247 248 250 252 255 255 254 254 255 256 258 258 257 256 255 255 253
255 255 256 259 263 267 271 274 275 276 276 276 277 279 281 283 284 284 282 278 276 275 274 274 273 272 270 266 264 264 262 260 258 258 258 258 260 266 271 271 267 261 252 243 237 236 236 234 234 235 236 234 230 226 224 223 221 219 218 218 218 221 224 228 232 235 237 242 247 249 249 249 250 250 252 257 258 256 257 260 262 263 261 257 255 255 255 254
256 256 256 258 261 265 269 273 275 276 276 276 277 277 279 282 283 284 282 279 276 274 273 272 270 270 269 265 262 262 261 261 260 260 260 259 259 260 265 269 268 263 257 249 242 241 242 238 232 232 232 230 228 226 224 222 221 217 214 214 216 222 227 230 233 236 238 240 245 248 249 249 250 250 251 255 258 259 261 263 264 264 262 260 260 260 259 256
258 258 258 259 262 265 269 272 274 276 276 276 277 277 278 281 282 282 280 278 276 273 272 272 270 269 268 265 263 264 265 265 264 263 262 261 259 257 257 260 262 261 258 253 247 241 241 242 239 236 234 230 225 222 222 222 221 218 216 217 219 225 232 234 235 238 241 242 244 247 249 248 249 249 248 250 254 259 262 262 262 261 260 261 262 263 263 259
259 259 259 260 262 265 268 271 274 275 276 276 277 278 279 280 281 280 279 277 275 272 269 267 266 268 269 268 267 266 265 264 263 262 262 263 262 259 256 256 258 260 260 258 255 248 243 244 244 243 243 239 232 226 224 224 225 225 224 226 229 233 238 240 240 242 244 245 247 248 248 249 249 248 246 247 251 255 259 259 258 257 258 261 264 264 264 261
259 259 260 261 263 266 269 271 273 275 276 277 277 279 279 279 279 279 277 276 273 270 266 263 262 265 268 268 266 264 262 261 260 259 259 260 261 260 258 257 258 259 261 261 259 254 250 248 247 249 252 250 245 241 237 234 234 235 235 237 239 241 243 244 244 245 245 246 248 248 246 246 247 245 243 245 248 251 255 257 257 258 260 263 266 264 260 258
258 260 261 263 266 268 271 273 274 276 276 277 278 278 278 277 276 276 274 272 270 268 265 262 261 261 262 263 263 263 262 260 258 257 257 257 257 257 255 255 256 257 257 258 256 255 252 252 252 252 254 254 252 250 248 246 245 245 245 245 247 248 248 248 248 248 248 247 247 248 247 247 246 244 243 244 247 250 253 257 259 260 261 261 262 261 257 252
259 262 264 267 269 271 273 275 276 277 277 278 278 277 278 277 276 275 273 270 267 265 263 261 260 259 259 260 261 261 262 260 258 257 257 257 256 256 255 254 254 253 251 252 252 252 251 252 255 255 255 255 254 253 252 252 252 253 253 252 252 252 252 252 252 252 251 249 248 247 247 249 250 249 247 248 249 252 254 257 260 261 261 258 258 259 256 251
263 267 269 271 272 273 275 276 277 277 277 278 277 277 276 276 275 274 272 270 266 263 261 260 259 257 256 257 257 258 258 257 257 257 257 258 259 259 259 257 256 256 255 255 253 252 252 253 256 257 256 256 256 257 257 256 256 255 255 255 254 254 254 255 256 257 257 257 255 252 250 248 250 251 251 250 252 254 256 258 260 261 260 257 256 255 251 246
267 270 273 274 275 276 276 276 276 277 277 277 276 276 275 275 274 273 271 269 265 261 259 258 256 254 254 254 254 255 255 255 256 257 257 257 258 260 261 261 261 263 263 262 258 255 256 256 257 258 257 257 258 259 259 258 257 256 255 255 254 255 256 258 261 263 265 264 261 259 256 251 247 248 250 251 253 255 257 258 259 259 258 257 254 251 247 243
269 272 274 276 277 278 278 277 277 277 276 276 275 275 275 275 274 273 270 266 262 259 256 254 252 252 252 251 252 253 254 254 254 255 255 255 256 258 261 262 264 266 266 265 261 257 258 258 258 258 259 259 259 259 258 256 255 255 254 254 254 256 258 261 263 265 265 264 263 262 260 255 248 245 248 251 254 255 257 259 260 261 261 260 258 254 249 246
271 274 275 277 279 279 279 279 278 277 275 275 274 273 274 273 273 272 268 263 259 257 253 250 248 249 250 249 250 251 251 252 253 254 255 256 256 258 261 262 264 264 264 262 259 257 260 261 260 260 260 260 258 257 255 255 254 254 254 253 254 255 258 260 261 262 262 262 263 262 261 260 253 246 246 249 252 255 258 260 262 264 265 265 264 260 255 250
275 277 278 279 279 279 279 279 277 276 274 273 272 272 272 272 271 269 266 260 255 254 250 246 245 246 248 248 249 249 250 252 252 253 255 256 256 257 258 260 260 261 261 260 258 258 260 262 263 263 264 263 260 257 256 255 254 254 254 256 257 259 260 260 260 261 262 262 264 264 263 262 258 251 248 248 249 252 256 259 261 263 264 265 265 263 260 257
279 280 280 279 279 279 278 277 276 274 272 272 271 271 270 269 267 265 264 258 253 253 248 242 242 243 245 246 247 248 249 253 254 256 259 259 259 257 256 257 258 260 262 262 262 262 262 263 265 265 264 263 262 262 260 258 257 256 256 257 258 259 260 261 262 263 263 264 266 268 266 264 262 257 254 252 252 253 254 256 259 260 262 265 266 267 266 265
282 282 281 279 278 277 276 276 274 272 271 270 270 269 267 265 263 262 261 253 248 246 241 238 237 236 240 243 243 242 244 251 255 257 260 261 261 259 258 259 261 264 266 265 264 264 263 263 264 263 260 259 261 263 262 262 261 260 260 259 260 261 263 265 267 268 269 270 270 269 268 268 266 263 259 257 256 257 256 256 258 259 262 265 267 269 269 269
282 282 281 278 276 274 274 275 273 272 271 269 268 266 262 260 258 257 252 243 240 236 232 232 227 226 233 238 237 234 236 242 245 246 248 249 253 255 257 260 262 266 270 271 268 265 264 264 264 263 260 258 259 261 262 264 267 267 268 268 268 270 271 272 273 274 274 274 272 269 268 269 268 266 261 258 257 257 258 258 259 261 265 268 270 270 269 268
281 281 279 276 273 271 271 272 271 270 269 267 265 261 258 254 249 248 240 232 232 229 226 225 220 218 219 218 222 227 231 237 240 241 240 241 249 254 259 265 270 274 278 282 283 282 280 276 270 268 265 261 259 260 262 265 268 269 270 271 271 272 273 273 274 274 273 273 272 270 269 268 268 266 263 260 256 255 257 260 261 264 267 271 273 272 269 266
279 279 276 273 271 269 268 268 267 268 266 262 260 256 252 246 238 235 230 226 225 220 219 221 216 210 204 203 213 225 232 238 242 246 248 253 262 266 269 274 278 282 287 291 292 295 296 289 281 276 270 263 260 259 259 260 261 261 263 266 267 269 272 274 274 273 271 271 270 270 269 269 270 271 269 266 262 257 256 259 262 266 268 271 275 276 274 270
276 275 273 270 267 265 264 264 263 262 261 259 256 253 248 240 233 230 226 224 223 219 220 220 213 209 209 215 223 228 235 243 247 255 261 265 273 277 281 285 287 289 291 291 290 290 290 288 288 285 274 267 263 258 255 255 256 259 261 263 266 270 274 274 273 272 273 272 272 271 271 271 272 273 271 268 267 262 256 254 258 264 268 271 274 275 274 273
270 270 270 267 263 260 260 260 259 257 257 256 254 251 246 237 232 232 231 230 228 226 226 226 222 223 228 233 236 240 248 255 259 266 272 274 280 285 289 293 295 298 298 296 294 291 286 282 283 282 278 273 267 262 260 260 260 262 264 265 268 270 272 272 273 273 273 272 271 269 270 271 271 271 269 267 267 263 257 252 252 257 263 268 269 267 262 260
266 265 264 263 260 257 255 256 256 254 253 253 251 249 245 240 237 237 238 237 235 232 233 235 234 236 240 242 245 250 258 263 267 273 278 282 285 288 291 294 296 299 300 299 297 295 291 284 279 278 278 275 268 262 262 262 261 261 263 265 269 270 270 271 273 273 273 271 269 268 269 271 270 269 267 266 264 262 257 253 251 253 257 261 264 262 255 247
265 262 259 258 258 256 254 252 253 252 251 251 249 245 243 241 240 241 241 241 239 237 238 241 242 242 245 246 248 255 262 268 273 277 282 285 287 288 290 292 294 296 297 297 296 295 295 291 285 279 275 272 269 264 260 259 259 259 261 264 267 268 269 270 272 273 273 272 270 267 266 265 265 266 265 262 260 258 255 255 255 254 255 257 258 259 257 250
262 260 256 254 253 254 253 251 250 250 249 249 248 246 243 240 240 241 242 243 242 240 240 243 245 247 249 252 256 262 269 273 277 280 283 286 287 288 290 292 293 294 293 293 292 291 293 291 288 284 277 272 268 264 259 258 259 260 261 261 261 263 265 267 269 270 272 272 272 269 265 262 261 263 263 260 259 257 255 257 257 256 255 254 255 256 256 253
260 257 254 251 250 250 250 249 248 247 247 248 248 247 244 241 240 240 242 243 244 242 241 243 246 249 253 258 263 268 272 276 279 281 283 284 285 287 289 290 291 291 291 290 289 289 290 289 287 284 281 276 271 267 261 259 259 258 258 258 258 259 261 264 266 267 269 270 271 269 266 262 261 263 264 263 261 259 258 259 259 257 255 251 250 251 252 253
260 256 252 249 248 248 247 247 246 246 246 247 247 247 244 242 241 241 242 244 245 245 245 246 247 251 256 260 265 269 272 275 277 279 280 281 283 284 285 287 287 287 288 288 288 288 288 288 287 284 282 278 275 272 268 264 262 259 258 257 257 258 258 260 262 263 264 267 268 269 268 265 264 265 267 267 265 263 262 262 262 261 259 256 253 250 250 253
259 257 253 250 248 247 247 246 246 245 245 246 247 248 247 245 243 243 243 245 247 248 249 249 251 253 257 262 265 268 270 272 273 275 277 279 281 281 282 283 283 283 284 285 286 286 286 287 287 285 282 278 275 274 272 270 268 265 263 261 261 261 261 262 263 264 265 266 266 267 269 268 265 265 268 270 269 268 267 266 266 265 265 265 264 260 257 255
259 257 255 253 250 248 247 247 246 246 247 247 248 249 250 249 247 246 245 246 249 251 253 254 255 257 259 262 265 268 269 271 271 273 275 277 278 279 280 281 281 281 281 282 283 284 285 285 286 284 281 277 275 274 272 270 270 269 268 266 265 265 265 266 267 268 268 267 265 266 268 268 266 266 267 268 267 266 267 268 269 268 268 269 269 268 265 262
257 257 256 255 253 251 249 248 247 248 249 250 250 251 252 253 253 252 251 251 253 254 256 258 259 261 263 265 267 269 271 273 273 274 275 276 276 277 278 279 280 280 280 280 281 282 282 282 283 283 281 278 276 274 271 269 269 269 269 268 266 266 266 266 266 267 268 267 266 266 267 267 267 268 267 267 267 266 267 269 270 270 271 272 271 270 269 268
257 256 256 255 255 254 252 251 250 250 251 252 253 254 255 256 257 258 259 259 259 259 260 261 263 264 266 268 269 271 273 275 276 276 277 277 277 277 277 278 278 279 279 279 280 280 279 279 280 280 279 277 275 274 273 272 270 268 267 266 265 265 264 264 265 266 268 269 269 268 268 269 270 269 267 268 269 269 269 270 272 273 275 276 276 275 272 271
260 258 256 256 256 255 255 254 254 253 253 253 254 256 258 259 261 262 264 264 264 264 265 266 267 268 269 271 272 273 274 276 277 278 278 278 278 277 277 277 277 277 278 278 279 279 278 277 278 277 276 276 274 272 271 270 269 269 267 267 266 264 262 261 261 261 262 264 265 265 267 269 270 270 269 268 269 270 270 271 273 274 276 277 278 278 276 275
263 261 259 258 257 256 257 256 256 256 256 256 256 257 259 261 263 264 265 266 266 267 268 268 269 270 271 272 274 275 275 276 276 277 277 277 277 278 278 278 278 278 278 278 277 277 276 276 275 275 275 275 274 271 269 268 267 268 268 267 266 266 265 263 262 260 259 260 261 261 263 265 266 267 268 268 268 268 269 270 271 272 274 275 275 276 275 275
263 262 262 260 259 259 259 258 258 258 258 258 258 259 260 261 263 264 265 266 267 268 269 269 270 271 272 272 273 274 275 276 276 276 277 278 278 279 279 279 279 279 279 278 277 277 276 275 274 272 272 272 272 271 270 268 267 266 266 265 265 265 266 265 265 264 263 263 265 265 265 266 266 266 267 267 266 266 266 267 269 270 271 271 271 271 271 271
264 263 263 262 261 261 261 260 260 260 259 259 260 260 260 261 262 263 263 264 266 267 268 269 269 270 271 272 273 273 274 275 276 277 277 278 279 279 279 279 279 279 279 278 278 277 276 275 273 271 269 268 268 268 268 268 267 266 265 265 265 265 266 266 266 266 266 267 270 270 270 271 270 269 268 268 268 268 268 269 269 269 269 270 269 268 267 267
267 266 264 264 263 262 262 261 261 260 260 260 260 261 260 260 261 262 263 264 264 265 266 267 268 269 270 271 271 272 273 274 275 275 276 277 277 278 278 278 278 279 279 278 278 278 277 276 274 271 269 267 267 267 268 268 268 268 267 266 265 264 264 265 266 267 269 270 272 272 272 272 271 270 270 271 272 272 272 272 271 271 271 270 269 268 266 265
269 268 267 266 266 265 264 264 263 262 261 261 261 261 260 260 260 260 261 263 264 264 265 266 266 267 268 268 269 270 271 272 272 273 274 275 276 276 277 277 278 278 278 278 278 277 276 275 274 272 269 267 267 267 268 269 269 269 269 267 267 267 267 268 268 268 268 268 267 267 267 267 268 269 270 269 270 270 271 272 272 272 272 271 270 269 268 266
268 268 268 267 267 267 267 266 266 266 265 264 263 262 261 261 260 260 260 261 262 263 263 264 265 266 266 267 268 269 270 271 272 273 274 274 275 275 275 276 276 276 276 276 276 275 274 274 273 272 271 269 269 269 269 269 269 268 268 268 270 272 272 271 269 267 266 266 265 264 264 264 266 266 266 266 266 267 268 269 269 269 270 270 270 270 270 269
266 265 265 265 266 266 266 266 267 267 267 267 267 266 265 265 264 263 263 262 262 263 264 265 266 267 268 269 270 271 272 273 274 274 274 274 274 274 274 275 274 274 274 273 272 272 272 272 272 272 272 272 271 271 270 270 268 268 270 271 272 272 271 269 268 267 266 266 265 264 264 264 264 263 264 265 266 267 267 266 266 267 267 268 268 269 269 269
Height
5760 5760 5760 5760 5759 5759 5759 5759 5758 5758 5757 5757 5757 5756 5756 5756 5756 5756 5756 5756 5757 5757 5758 5758 5759 5759 5760 5760 5761 5761 5762 5762 5762 5763 5763 5764 5764 5764 5764 5764 5764 5765 5765 5766 5767 5768 5768 5769 5770 5771 5771 5772 5773 5773 5774 5776 5777 5778 5779 5780 5781 5782 5782 5782 5784 5785 5786 5787 5789 5790 5791 5793 5795 5796 5797 5797 5798 5800 5801 5803 5803 5804 5805 5806 5807 5808 5808 5808
5758 5758 5758 5758 5758 5757 5757 5756 5756 5755 5755 5754 5754 5754 5753 5753 5753 5753 5753 5754 5754 5755 5755 5756 5756 5757 5757 5758 5758 5759 5759 5760 5760 5760 5761 5761 5761 5761 5762 5762 5762 5762 5763 5764 5765 5765 5766 5767 5767 5768 5769 5770 5770 5771 5772 5773 5775 5776 5777 5778 5779 5779 5779 5781 5782 5783 5784 5785 5786 5787 5789 5791 5792 5794 5795 5795 5796 5797 5799 5800 5801 5802 5802 5804 5805 5806 5805 5805
5756 5756 5756 5756 5756 5755 5755 5754 5754 5753 5753 5752 5752 5751 5751 5750 5750 5751 5751 5751 5752 5752 5753 5753 5754 5754 5755 5755 5756 5756 5757 5757 5757 5758 5759 5759 5759 5759 5759 5759 5760 5760 5761 5762 5762 5763 5764 5764 5765 5766 5767 5767 5768 5769 5770 5771 5772 5773 5775 5776 5776 5776 5777 5779 5780 5781 5782 5783 5784 5785 5787 5789 5790 5791 5792 5794 5794 5795 5796 5797 5798 5799 5800 5801 5802 5802 5802 5803
5754 5754 5754 5754 5754 5753 5753 5752 5752 5751 5750 5750 5749 5749 5748 5748 5748 5748 5749 5749 5750 5750 5751 5751 5751 5752 5752 5753 5753 5753 5754 5754 5755 5755 5756 5756 5756 5757 5757 5757 5758 5758 5759 5759 5760 5761 5761 5762 5763 5764 5764 5765 5766 5767 5767 5769 5770 5771 5772 5773 5773 5774 5776 5777 5778 5779 5780 5781 5782 5783 5785 5786 5788 5789 5790 5791 5792 5793 5794 5795 5795 5795 5796 5798 5798 5799 5799 5800
5753 5753 5752 5752 5752 5751 5751 5750 5749 5749 5748 5748 5747 5747 5746 5746 5746 5746 5747 5747 5747 5748 5748 5749 5749 5750 5750 5750 5750 5751 5751 5751 5752 5753 5753 5754 5754 5754 5754 5755 5755 5756 5756 5757 5757 5758 5759 5760 5760 5761 5762 5762 5764 5764 5765 5766 5768 5769 5770 5770 5771 5772 5773 5775 5776 5777 5778 5779 5780 5781 5783 5784 5785 5787 5788 5789 5789 5790 5791 5791 5792 5792 5793 5794 5795 5796 5797 5798
5751 5751 5750 5750 5750 5749 5749 5748 5747 5747 5747 5746 5746 5745 5745 5744 5744 5744 5745 5745 5746 5746 5746 5747 5747 5748 5748 5748 5748 5748 5749 5749 5750 5750 5751 5751 5751 5751 5752 5752 5752 5753 5753 5754 5755 5755 5756 5757 5758 5758 5759 5760 5761 5762 5763 5764 5766 5767 5768 5768 5768 5770 5771 5773 5774 5775 5776 5777 5778 5779 5780 5781 5783 5784 5785 5786 5786 5787 5788 5788 5789 5789 5790 5792 5793 5794 5795 5796
5749 5749 5748 5748 5748 5747 5747 5746 5746 5745 5745 5745 5744 5743 5743 5743 5743 5743 5743 5743 5744 5744 5744 5745 5745 5745 5746 5746 5746 5746 5746 5747 5747 5748 5748 5749 5749 5749 5749 5749 5750 5750 5751 5751 5752 5752 5753 5754 5755 5756 5757 5758 5760 5760 5761 5762 5764 5765 5766 5766 5766 5768 5769 5771 5772 5773 5774 5775 5776 5777 5778 5779 5780 5781 5782 5783 5783 5784 5786 5786 5787 5788 5789 5790 5791 5792 5793 5794
5747 5747 5747 5746 5746 5746 5745 5745 5744 5744 5744 5743 5743 5742 5742 5741 5741 5741 5742 5742 5742 5742 5742 5743 5743 5744 5744 5744 5744 5745 5745 5745 5745 5746 5746 5746 5746 5747 5747 5747 5747 5748 5748 5748 5749 5750 5751 5752 5753 5755 5755 5756 5757 5758 5759 5760 5762 5762 5763 5763 5764 5766 5767 5769 5771 5772 5772 5773 5774 5776 5776 5777 5777 5778 5779 5780 5781 5782 5783 5784 5785 5786 5787 5788 5789 5790 5791 5791
5745 5745 5745 5745 5744 5744 5744 5743 5743 5743 5742 5742 5741 5741 5740 5740 5740 5740 5740 5740 5740 5740 5741 5741 5742 5742 5742 5742 5743 5743 5743 5743 5743 5744 5744 5744 5744 5744 5744 5745 5745 5745 5746 5746 5747 5748 5749 5750 5751 5752 5753 5754 5754 5755 5757 5758 5759 5760 5760 5761 5763 5764 5765 5767 5769 5770 5770 5771 5772 5773 5774 5774 5775 5776 5777 5778 5779 5780 5781 5782 5784 5785 5785 5786 5787 5788 5789 5789
5743 5743 5743 5743 5743 5743 5742 5742 5742 5742 5741 5741 5740 5740 5739 5739 5739 5739 5739 5739 5739 5739 5739 5740 5740 5740 5741 5741 5741 5742 5742 5742 5742 5742 5742 5742 5742 5742 5742 5743 5743 5743 5744 5744 5745 5746 5747 5748 5749 5750 5750 5751 5752 5753 5754 5756 5756 5757 5758 5759 5761 5762 5763 5765 5766 5767 5768 5769 5770 5771 5771 5772 5773 5774 5775 5776 5777 5778 5779 5780 5781 5782 5783 5784 5785 5785 5786 5787
5741 5741 5741 5741 5741 5741 5741 5741 5741 5741 5740 5740 5739 5739 5739 5738 5738 5738 5737 5737 5738 5738 5738 5739 5739 5739 5739 5740 5740 5740 5740 5740 5740 5741 5741 5741 5741 5741 5741 5741 5741 5741 5742 5742 5743 5744 5745 5746 5746 5747 5747 5748 5749 5751 5752 5753 5754 5754 5756 5757 5759 5760 5761 5763 5764 5765 5766 5766 5767 5768 5769 5769 5770 5772 5773 5774 5776 5776 5777 5778 5779 5780 5781 5782 5783 5784 5785 5785
5739 5740 5740 5740 5740 5740 5740 5740 5739 5739 5739 5739 5739 5738 5738 5737 5737 5737 5736 5736 5736 5737 5737 5738 5738 5738 5738 5738 5738 5738 5738 5739 5739 5739 5739 5740 5740 5739 5739 5739 5739 5740 5740 5741 5741 5742 5742 5743 5744 5744 5745 5746 5747 5748 5750 5750 5751 5752 5754 5755 5757 5758 5759 5760 5762 5763 5763 5763 5764 5765 5767 5768 5769 5770 5771 5772 5773 5774 5775 5776 5777 5779 5780 5781 5781 5782 5783 5783
5738 5738 5738 5738 5738 5738 5738 5738 5738 5738 5738 5738 5738 5737 5737 5737 5736 5736 5736 5735 5735 5736 5736 5736 5736 5736 5736 5736 5737 5737 5737 5737 5737 5738 5738 5738 5738 5738 5738 5738 5738 5738 5739 5739 5740 5740 5741 5741 5742 5742 5743 5744 5745 5746 5747 5748 5749 5750 5752 5753 5754 5755 5756 5758 5759 5760 5761 5761 5761 5763 5764 5765 5766 5767 5768 5769 5771 5772 5774 5775 5777 5778 5779 5779 5779 5780 5780 5780
5736 5736 5736 5737 5737 5737 5737 5737 5736 5736 5736 5736 5736 5736 5736 5736 5735 5735 5735 5734 5734 5734 5734 5734 5735 5735 5735 5735 5735 5735 5736 5736 5736 5736 5736 5737 5737 5737 5737 5737 5737 5737 5737 5738 5739 5739 5739 5740 5740 5741 5741 5742 5743 5745 5745 5746 5747 5748 5750 5751 5752 5753 5754 5755 5757 5758 5758 5758 5758 5760 5761 5763 5763 5764 5766 5767 5768 5770 5772 5774 5775 5776 5776 5777 5776 5777 5777 5777
5734 5734 5734 5735 5735 5735 5735 5735 5735 5735 5735 5735 5735 5735 5735 5735 5734 5734 5734 5733 5733 5733 5733 5733 5733 5733 5733 5733 5733 5733 5734 5734 5735 5735 5735 5735 5735 5736 5736 5736 5736 5736 5736 5737 5737 5737 5738 5738 5739 5740 5740 5741 5742 5743 5743 5744 5745 5746 5748 5749 5750 5751 5752 5753 5754 5755 5755 5756 5756 5757 5759 5761 5761 5762 5764 5765 5766 5768 5769 5771 5772 5773 5773 5773 5773 5774 5774 5774
5732 5732 5733 5733 5733 5733 5733 5733 5733 5733 5733 5733 5734 5734 5734 5733 5733 5733 5732 5732 5732 5732 5732 5732 5731 5731 5731 5731 5731 5732 5732 5733 5733 5733 5733 5734 5734 5735 5735 5735 5735 5735 5735 5735 5736 5736 5736 5737 5738 5739 5739 5740 5741 5741 5741 5742 5743 5745 5746 5747 5748 5749 5750 5751 5752 5753 5754 5754 5754 5755 5757 5759 5760 5760 5762 5762 5763 5766 5767 5768 5769 5769 5770 5770 5770 5771 5771 5771
5730 5730 5731 5731 5731 5731 5731 5732 5732 5732 5732 5732 5732 5732 5732 5732 5731 5731 5731 5731 5730 5730 5730 5730 5730 5730 5730 5730 5730 5730 5730 5731 5731 5732 5732 5732 5733 5733 5734 5734 5734 5734 5734 5734 5735 5735 5736 5736 5737 5737 5738 5739 5739 5740 5740 5741 5742 5743 5744 5745 5746 5747 5748 5749 5750 5751 5752 5753 5753 5753 5755 5758 5757 5758 5760 5760 5761 5763 5764 5765 5766 5766 5767 5767 5767 5768 5768 5769
5728 5728 5728 5729 5729 5729 5730 5730 5730 5730 5730 5730 5730 5730 5730 5730 5730 5730 5730 5729 5729 5729 5729 5729 5728 5728 5728 5728 5728 5729 5729 5729 5730 5730 5730 5731 5731 5732 5732 5732 5732 5733 5733 5733 5734 5735 5735 5736 5736 5736 5736 5737 5738 5739 5739 5740 5741 5742 5743 5743 5744 5745 5746 5747 5748 5749 5750 5751 5751 5751 5753 5755 5755 5756 5758 5758 5758 5759 5761 5762 5763 5763 5764 5764 5764 5765 5766 5766
5726 5726 5726 5727 5727 5727 5728 5728 5728 5728 5728 5728 5728 5728 5728 5728 5728 5728 5728 5728 5727 5727 5727 5727 5727 5726 5726 5727 5727 5727 5728 5728 5728 5728 5729 5729 5729 5730 5730 5730 5731 5731 5732 5733 5733 5734 5735 5735 5735 5735 5735 5736 5737 5738 5739 5739 5740 5741 5741 5742 5743 5744 5744 5745 5746 5747 5748 5749 5749 5749 5751 5752 5752 5753 5755 5756 5756 5757 5758 5759 5760 5760 5761 5761 5762 5762 5763 5763
5724 5724 5724 5725 5725 5725 5726 5726 5726 5726 5726 5726 5726 5726 5726 5726 5726 5726 5726 5726 5726 5726 5726 5725 5725 5725 5725 5725 5725 5726 5726 5726 5727 5727 5727 5727 5727 5728 5728 5729 5729 5730 5730 5731 5733 5733 5734 5734 5733 5733 5734 5735 5737 5737 5738 5738 5739 5740 5740 5741 5742 5742 5743 5744 5745 5745 5746 5747 5747 5748 5749 5749 5749 5751 5753 5754 5754 5754 5755 5756 5757 5758 5758 5759 5759 5760 5760 5760
5722 5722 5722 5722 5723 5723 5723 5724 5724 5724 5724 5724 5724 5724 5724 5724 5724 5724 5724 5724 5724 5724 5724 5723 5723 5723 5724 5723 5724 5724 5724 5725 5725 5725 5725 5726 5726 5726 5727 5727 5728 5728 5729 5730 5731 5732 5733 5732 5731 5731 5733 5734 5735 5736 5736 5737 5738 5738 5739 5740 5741 5741 5741 5742 5742 5743 5744 5745 5745 5746 5747 5747 5747 5749 5750 5751 5752 5752 5752 5753 5754 5755 5757 5757 5757 5758 5758 5758
5719 5720 5720 5720 5720 5721 5721 5721 5721 5722 5722 5722 5722 5721 5721 5722 5722 5722 5722 5722 5722 5722 5722 5721 5721 5722 5722 5722 5722 5722 5723 5723 5723 5724 5724 5724 5724 5725 5725 5726 5726 5726 5727 5728 5729 5730 5731 5729 5729 5730 5731 5732 5734 5734 5735 5736 5736 5737 5738 5738 5739 5739 5739 5739 5739 5740 5741 5743 5743 5744 5745 5745 5745 5746 5748 5749 5749 5749 5749 5750 5750 5752 5754 5754 5755 5755 5755 5755
5717 5717 5718 5718 5718 5718 5719 5719 5719 5719 5719 5719 5719 5719 5719 5719 5719 5719 5719 5719 5719 5719 5719 5719 5719 5720 5720 5720 5720 5720 5721 5721 5721 5722 5722 5722 5723 5723 5723 5724 5724 5725 5725 5726 5727 5728 5728 5726 5726 5728 5729 5730 5731 5732 5733 5734 5735 5735 5736 5736 5737 5737 5737 5737 5737 5738 5739 5740 5741 5742 5743 5743 5743 5744 5745 5745 5746 5746 5747 5747 5748 5749 5750 5750 5751 5752 5752 5753
5715 5715 5715 5715 5716 5716 5716 5717 5717 5717 5717 5717 5716 5716 5716 5716 5716 5716 5717 5717 5717 5717 5717 5717 5717 5717 5717 5717 5718 5718 5719 5719 5720 5720 5720 5721 5721 5721 5722 5722 5722 5722 5723 5724 5725 5726 5725 5724 5725 5726 5726 5727 5728 5729 5731 5732 5732 5733 5733 5734 5734 5734 5734 5734 5734 5735 5736 5738 5739 5740 5741 5742 5742 5742 5742 5742 5742 5743 5744 5744 5745 5745 5746 5746 5747 5748 5749 5750
5713 5713 5713 5713 5713 5713 5714 5714 5714 5714 5714 5714 5714 5714 5713 5713 5713 5714 5714 5714 5714 5714 5714 5715 5715 5715 5715 5715 5716 5716 5717 5717 5718 5718 5719 5719 5719 5719 5719 5720 5720 5720 5721 5722 5723 5723 5722 5722 5723 5723 5724 5725 5726 5727 5728 5729 5729 5729 5730 5731 5731 5731 5731 5731 5732 5733 5734 5735 5735 5737 5738 5739 5740 5740 5739 5739 5739 5739 5739 5740 5741 5741 5741 5742 5743 5745 5746 5747
5711 5711 5711 5711 5711 5711 5711 5711 5711 5711 5711 5711 5711 5711 5711 5711 5711 5711 5711 5711 5711 5712 5712 5712 5712 5713 5713 5713 5714 5714 5715 5715 5716 5716 5716 5717 5717 5717 5717 5717 5718 5718 5719 5720 5720 5720 5719 5719 5720 5720 5721 5722 5723 5724 5725 5725 5726 5726 5727 5728 5728 5728 5728 5729 5730 5731 5731 5731 5732 5733 5734 5735 5737 5738 5737 5736 5736 5735 5735 5736 5736 5737 5737 5738 5740 5741 5743 5744
5709 5709 5709 5709 5708 5708 5708 5708 5708 5709 5709 5708 5708 5708 5708 5708 5708 5708 5709 5709 5709 5709 5710 5710 5710 5710 5711 5711 5712 5712 5713 5713 5714 5714 5714 5715 5715 5715 5715 5716 5716 5716 5717 5718 5718 5717 5717 5717 5717 5718 5719 5720 5720 5721 5721 5722 5723 5723 5724 5724 5724 5725 5726 5726 5727 5727 5727 5728 5728 5730 5730 5731 5733 5735 5734 5733 5733 5732 5732 5732 5732 5733 5734 5735 5736 5738 5739 5741
5707 5707 5707 5706 5706 5706 5706 5706 5706 5706 5706 5706 5706 5706 5706 5706 5706 5706 5707 5707 5707 5707 5708 5708 5708 5708 5709 5710 5710 5711 5711 5711 5712 5712 5712 5713 5713 5713 5713 5713 5714 5714 5714 5715 5715 5715 5715 5714 5715 5716 5717 5717 5717 5718 5718 5719 5720 5721 5721 5721 5722 5722 5722 5723 5723 5723 5724 5724 5725 5726 5726 5726 5728 5730 5730 5730 5730 5730 5730 5729 5729 5730 5730 5730 5732 5733 5735 5736
5704 5704 5704 5704 5704 5703 5703 5703 5703 5703 5703 5703 5703 5704 5704 5704 5704 5704 5705 5705 5705 5705 5706 5706 5706 5707 5707 5708 5708 5709 5709 5709 5710 5710 5711 5711 5711 5712 5711 5711 5712 5712 5712 5713 5713 5713 5713 5713 5713 5714 5715 5715 5715 5715 5716 5716 5717 5718 5718 5718 5719 5718 5719 5719 5719 5720 5720 5721 5722 5722 5722 5722 5723 5725 5726 5726 5726 5727 5727 5726 5726 5726 5726 5727 5727 5729 5730 5731
5702 5702 5702 5702 5701 5701 5701 5701 5701 5701 5701 5701 5701 5701 5702 5702 5702 5702 5703 5703 5703 5704 5704 5704 5705 5705 5706 5706 5707 5707 5707 5708 5709 5709 5709 5709 5709 5710 5710 5709 5710 5710 5710 5711 5711 5711 5711 5711 5711 5711 5712 5712 5712 5713 5713 5714 5714 5715 5715 5715 5715 5715 5716 5716 5716 5717 5717 5718 5719 5718 5718 5718 5718 5721 5722 5722 5723 5723 5722 5722 5722 5722 5722 5723 5724 5725 5726 5727
5699 5699 5699 5699 5699 5699 5699 5699 5699 5699 5699 5699 5699 5699 5700 5700 5700 5701 5701 5701 5702 5702 5702 5703 5703 5704 5705 5705 5705 5706 5706 5706 5707 5707 5707 5708 5707 5707 5707 5708 5708 5708 5708 5708 5709 5709 5709 5709 5709 5709 5709 5710 5710 5710 5711 5711 5712 5712 5712 5713 5713 5713 5713 5713 5713 5714 5714 5714 5715 5715 5714 5714 5715 5716 5717 5718 5719 5719 5718 5718 5718 5718 5719 5719 5720 5721 5722 5723
5697 5697 5697 5697 5697 5697 5696 5697 5697 5697 5697 5697 5697 5698 5698 5699 5699 5699 5700 5699 5700 5700 5701 5701 5702 5703 5703 5704 5704 5704 5705 5705 5705 5706 5706 5706 5706 5706 5706 5706 5706 5707 5706 5706 5707 5707 5707 5707 5707 5707 5707 5708 5708 5708 5709 5709 5710 5710 5710 5710 5710 5710 5710 5711 5711 5711 5711 5712 5712 5712 5712 5712 5712 5713 5714 5715 5716 5716 5715 5715 5715 5715 5716 5716 5716 5717 5718 5719
5694 5694 5694 5694 5694 5694 5694 5695 5695 5695 5695 5695 5696 5696 5697 5697 5698 5698 5698 5698 5698 5699 5699 5700 5701 5702 5702 5703 5703 5703 5704 5704 5704 5704 5704 5704 5704 5704 5704 5705 5705 5705 5705 5705 5705 5705 5705 5705 5705 5705 5706 5705 5706 5706 5707 5707 5707 5707 5707 5708 5708 5707 5708 5708 5709 5709 5709 5709 5709 5709 5709 5709 5709 5710 5710 5711 5711 5712 5713 5713 5712 5712 5713 5713 5713 5714 5715 5716
5692 5692 5692 5692 5692 5692 5692 5693 5693 5693 5693 5693 5694 5694 5695 5696 5696 5696 5697 5697 5697 5698 5698 5699 5699 5700 5701 5701 5702 5702 5702 5702 5703 5703 5703 5703 5703 5703 5703 5703 5703 5703 5703 5703 5703 5704 5704 5703 5703 5704 5704 5704 5704 5704 5704 5704 5704 5704 5705 5705 5705 5705 5705 5705 5705 5705 5706 5706 5705 5705 5705 5706 5706 5706 5707 5707 5707 5708 5710 5710 5710 5710 5710 5711 5711 5712 5713 5714
5689 5689 5689 5690 5690 5690 5690 5690 5690 5691 5691 5691 5692 5692 5693 5694 5694 5695 5695 5696 5696 5696 5697 5697 5698 5698 5699 5699 5700 5700 5700 5701 5701 5701 5701 5701 5701 5700 5700 5700 5700 5701 5701 5701 5701 5701 5702 5702 5701 5701 5701 5702 5702 5702 5701 5701 5702 5702 5702 5702 5702 5703 5703 5702 5702 5702 5702 5702 5702 5702 5702 5703 5703 5703 5704 5704 5704 5705 5706 5707 5708 5708 5708 5709 5709 5710 5711 5712
5686 5687 5687 5687 5687 5688 5688 5688 5688 5688 5688 5689 5689 5690 5691 5692 5692 5693 5693 5694 5694 5695 5695 5695 5696 5696 5697 5697 5698 5698 5698 5698 5698 5698 5698 5698 5698 5698 5698 5698 5698 5698 5698 5698 5698 5698 5698 5699 5699 5699 5699 5699 5699 5699 5699 5699 5699 5699 5699 5699 5700 5700 5699 5699 5699 5699 5699 5699 5698 5699 5700 5700 5700 5700 5700 5701 5702 5702 5703 5704 5705 5706 5706 5707 5707 5708 5709 5710
5683 5684 5684 5685 5685 5685 5685 5685 5686 5686 5686 5686 5687 5688 5688 5689 5690 5691 5691 5691 5692 5693 5693 5693 5694 5694 5694 5695 5695 5696 5696 5696 5696 5696 5695 5695 5695 5695 5695 5695 5695 5695 5695 5695 5695 5694 5695 5695 5696 5697 5696 5696 5696 5696 5696 5696 5696 5696 5697 5697 5697 5697 5696 5696 5696 5695 5695 5695 5695 5696 5697 5697 5697 5697 5697 5698 5699 5700 5701 5702 5703 5703 5704 5705 5705 5706 5707 5708
5680 5681 5681 5682 5682 5682 5682 5683 5683 5683 5684 5684 5684 5685 5686 5687 5687 5688 5688 5689 5689 5690 5690 5690 5691 5691 5692 5692 5692 5693 5693 5693 5693 5693 5692 5692 5692 5692 5692 5692 5692 5692 5692 5692 5691 5691 5691 5691 5692 5693 5693 5693 5693 5693 5693 5693 5693 5693 5694 5694 5694 5694 5693 5693 5693 5692 5692 5691 5691 5692 5693 5693 5694 5694 5694 5695 5696 5697 5698 5699 5700 5700 5701 5702 5702 5703 5704 5705
5677 5678 5678 5679 5679 5679 5680 5680 5680 5681 5681 5681 5682 5682 5683 5684 5684 5685 5685 5686 5686 5687 5687 5688 5688 5688 5689 5689 5689 5690 5690 5689 5689 5689 5689 5689 5688 5688 5688 5688 5688 5688 5688 5688 5688 5687 5687 5687 5688 5689 5689 5689 5689 5689 5690 5690 5690 5690 5690 5690 5690 5690 5690 5690 5689 5689 5689 5688 5688 5688 5688 5689 5691 5691 5692 5693 5694 5694 5695 5696 5696 5697 5697 5698 5699 5699 5700 5701
5673 5674 5675 5676 5676 5676 5677 5677 5678 5678 5678 5679 5679 5679 5680 5681 5681 5682 5682 5683 5683 5683 5684 5685 5685 5686 5686 5686 5686 5686 5686 5686 5686 5686 5685 5685 5685 5685 5685 5685 5684 5684 5684 5684 5683 5683 5683 5683 5683 5684 5684 5684 5684 5684 5685 5685 5686 5686 5686 5686 5686 5686 5687 5686 5685 5685 5685 5685 5684 5684 5684 5685 5687 5688 5688 5690 5690 5691 5692 5692 5692 5693 5693 5693 5694 5695 5696 5697
5669 5670 5671 5672 5672 5673 5674 5674 5675 5675 5676 5676 5676 5676 5677 5677 5678 5679 5679 5680 5680 5680 5681 5682 5682 5683 5683 5683 5683 5683 5683 5683 5683 5682 5682 5682 5682 5681 5681 5681 5681 5680 5680 5680 5679 5679 5679 5678 5678 5679 5679 5680 5679 5679 5679 5680 5680 5681 5681 5681 5682 5682 5682 5682 5681 5681 5681 5681 5681 5680 5680 5681 5683 5684 5685 5686 5687 5687 5688 5688 5688 5688 5689 5689 5690 5691 5692 5693
5666 5666 5667 5668 5668 5669 5670 5671 5671 5672 5672 5673 5673 5673 5673 5674 5675 5675 5676 5676 5677 5677 5678 5678 5679 5679 5679 5679 5679 5679 5679 5679 5679 5679 5679 5679 5678 5678 5678 5677 5677 5677 5677 5676 5675 5675 5674 5674 5673 5674 5674 5674 5674 5674 5674 5674 5675 5675 5676 5676 5677 5677 5677 5677 5677 5677 5677 5677 5676 5676 5676 5676 5678 5681 5682 5683 5682 5683 5683 5684 5684 5684 5684 5685 5686 5686 5687 5688
5662 5662 5663 5663 5664 5664 5665 5666 5667 5668 5669 5669 5669 5669 5670 5670 5671 5672 5672 5673 5673 5674 5674 5674 5675 5675 5675 5675 5675 5675 5675 5675 5675 5675 5675 5675 5675 5674 5674 5673 5673 5673 5672 5672 5671 5671 5671 5670 5669 5669 5669 5669 5669 5669 5669 5670 5670 5670 5671 5671 5672 5672 5672 5672 5672 5672 5672 5671 5672 5672 5671 5671 5674 5677 5678 5678 5678 5678 5678 5679 5679 5679 5680 5680 5681 5682 5682 5683
5658 5658 5659 5659 5659 5660 5661 5662 5663 5664 5665 5665 5665 5665 5666 5666 5667 5668 5668 5669 5669 5669 5669 5670 5670 5670 5671 5671 5670 5670 5670 5670 5669 5670 5670 5670 5670 5670 5669 5669 5669 5668 5668 5667 5667 5667 5667 5666 5665 5664 5664 5664 5664 5664 5664 5665 5665 5666 5666 5666 5666 5667 5667 5667 5667 5667 5666 5665 5667 5667 5665 5666 5669 5671 5672 5673 5673 5674 5674 5674 5674 5674 5674 5675 5675 5676 5677 5678
5654 5654 5655 5655 5655 5655 5656 5657 5659 5660 5660 5661 5661 5661 5661 5662 5663 5663 5664 5664 5664 5664 5665 5665 5665 5665 5665 5666 5665 5665 5666 5665 5664 5664 5665 5665 5664 5664 5664 5664 5664 5663 5663 5662 5662 5662 5662 5661 5660 5659 5658 5658 5659 5659 5660 5660 5660 5660 5660 5661 5661 5662 5662 5662 5662 5662 5661 5661 5662 5662 5661 5662 5664 5664 5665 5667 5668 5668 5668 5668 5669 5669 5669 5670 5670 5670 5671 5672
5649 5650 5650 5651 5651 5651 5652 5653 5654 5655 5655 5656 5656 5657 5657 5657 5658 5659 5659 5659 5659 5660 5660 5660 5660 5660 5660 5660 5660 5660 5660 5660 5660 5659 5659 5659 5659 5659 5658 5658 5658 5658 5657 5657 5657 5657 5656 5656 5655 5654 5653 5653 5653 5654 5654 5655 5654 5655 5655 5655 5656 5656 5657 5657 5657 5656 5656 5656 5656 5656 5657 5659 5659 5659 5660 5661 5662 5663 5663 5663 5663 5664 5664 5665 5665 5666 5666 5667
5645 5645 5646 5646 5647 5647 5647 5648 5649 5650 5650 5651 5651 5652 5653 5653 5653 5653 5653 5654 5654 5654 5655 5655 5655 5655 5655 5655 5655 5655 5654 5654 5654 5654 5654 5653 5653 5653 5652 5652 5652 5652 5651 5651 5651 5651 5650 5650 5650 5649 5648 5647 5647 5647 5648 5649 5649 5650 5650 5650 5650 5650 5651 5651 5651 5651 5651 5651 5649 5650 5653 5654 5653 5654 5654 5654 5655 5656 5657 5657 5658 5658 5659 5659 5660 5660 5660 5661
5641 5641 5642 5642 5642 5642 5643 5644 5644 5645 5645 5646 5646 5647 5648 5648 5648 5647 5648 5648 5649 5649 5649 5649 5649 5650 5649 5650 5649 5649 5649 5649 5648 5648 5648 5648 5647 5647 5646 5646 5646 5645 5645 5645 5645 5645 5644 5644 5644 5644 5643 5642 5642 5642 5642 5643 5643 5644 5645 5644 5645 5645 5644 5645 5645 5646 5646 5646 5645 5645 5647 5648 5648 5648 5648 5647 5647 5648 5650 5651 5652 5652 5652 5652 5653 5653 5654 5654
5637 5637 5637 5637 5638 5638 5638 5639 5639 5640 5640 5640 5641 5641 5642 5642 5642 5642 5642 5642 5643 5643 5644 5643 5644 5644 5644 5644 5644 5643 5643 5643 5643 5643 5642 5642 5641 5641 5640 5640 5639 5639 5639 5639 5638 5638 5638 5637 5638 5637 5637 5637 5637 5637 5637 5637 5637 5638 5638 5639 5638 5638 5639 5639 5640 5640 5641 5641 5641 5640 5640 5642 5643 5642 5641 5641 5641 5641 5642 5643 5643 5644 5645 5645 5645 5646 5646 5647
5633 5633 5633 5633 5633 5634 5634 5634 5634 5635 5635 5635 5635 5636 5636 5637 5637 5637 5637 5637 5637 5637 5638 5638 5638 5638 5638 5638 5638 5638 5637 5637 5637 5637 5637 5636 5636 5635 5635 5634 5634 5633 5633 5633 5632 5632 5632 5631 5631 5631 5630 5631 5632 5632 5632 5631 5631 5631 5631 5631 5631 5632 5633 5634 5635 5635 5635 5634 5635 5634 5633 5634 5636 5636 5635 5635 5634 5634 5634 5634 5635 5636 5636 5636 5637 5638 5639 5640
5629 5629 5629 5629 5629 5629 5630 5629 5630 5630 5630 5630 5630 5631 5631 5631 5631 5631 5632 5632 5632 5632 5632 5633 5632 5632 5633 5632 5632 5632 5632 5632 5631 5631 5631 5630 5630 5629 5629 5629 5628 5628 5628 5627 5626 5626 5626 5625 5625 5624 5623 5625 5626 5626 5626 5625 5624 5624 5623 5624 5626 5627 5627 5628 5628 5628 5627 5627 5628 5627 5626 5629 5630 5629 5627 5627 5627 5628 5628 5628 5628 5628 5628 5629 5630 5630 5631 5632
5625 5625 5625 5625 5625 5625 5625 5625 5625 5625 5625 5625 5625 5625 5626 5626 5626 5626 5626 5626 5627 5627 5627 5627 5627 5627 5627 5627 5627 5627 5626 5626 5625 5625 5624 5624 5623 5623 5623 5622 5622 5622 5622 5622 5621 5621 5620 5619 5618 5617 5616 5618 5620 5619 5619 5618 5617 5616 5617 5619 5620 5620 5619 5619 5620 5620 5620 5621 5620 5619 5620 5623 5623 5621 5620 5621 5621 5621 5621 5621 5621 5621 5622 5622 5623 5624 5624 5625